Adelanto, California, United States (92301)
Lat: 34.58N, Lon: 117.41W
Wx Zone: CAZ060
Local Info
Past Weather Observations for Yesterday

NOTE: This archive is for the closest National Weather Service station to Adelanto. Information may differ from the station used for current weather conditions.

Time Weather Temperature Dewpoint Humidity Pressure Winds Precip Visibility
23:55
Fair
52°F / 11°C 19°F / -7°C 28% 29.95 in
(1014 mb)
W 11.5 mph
(W 19 kph)
- 10SM
23:35
Fair
52°F / 11°C 19°F / -7°C 28% 29.95 in
(1014 mb)
W 17.3 mph
(W 28 kph)
- 10SM
23:15
Fair
54°F / 12°C 21°F / -6°C 28% 29.95 in
(1014 mb)
W 13.8 mph
(W 22 kph)
- 10SM
22:55
Fair
54°F / 12°C 19°F / -7°C 26% 29.95 in
(1014 mb)
SSW 20.7 mph
(SSW 33 kph)
- 10SM
22:35
Fair
54°F / 12°C 19°F / -7°C 26% 29.95 in
(1014 mb)
SSW 17.3 mph
(SSW 28 kph)
- 10SM
22:15
Fair
54°F / 12°C 18°F / -8°C 24% 29.95 in
(1014 mb)
SSW 16.1 mph
(SSW 26 kph)
- 10SM
21:55
Fair
54°F / 12°C 18°F / -8°C 24% 29.95 in
(1014 mb)
SSW 10.4 mph
(SSW 17 kph)
- 10SM
21:35
Fair
52°F / 11°C 18°F / -8°C 26% 29.95 in
(1014 mb)
Calm - 10SM
21:15
Fair
54°F / 12°C 19°F / -7°C 26% 29.95 in
(1014 mb)
SSW 19.6 mph
(SSW 32 kph)
- 10SM
20:55
Fair
54°F / 12°C 19°F / -7°C 26% 29.95 in
(1014 mb)
SSW 21.9 mph
(SSW 35 kph)
- 10SM
20:35
Fair
54°F / 12°C 19°F / -7°C 26% 29.95 in
(1014 mb)
SSW 20.7 mph
(SSW 33 kph)
- 10SM
20:15
Clear
54°F / 12°C 19°F / -7°C 26% 29.95 in
(1014 mb)
SSW 18.4 mph
(SSW 30 kph)
- 10SM
19:55
Clear
54°F / 12°C 19°F / -7°C 26% 29.92 in
(1013 mb)
SSW 21.9 mph
(SSW 35 kph)
- 10SM
19:35
Clear
55°F / 13°C 18°F / -8°C 23% 29.92 in
(1013 mb)
SSW 18.4 mph
(SSW 30 kph)
- 10SM
19:15
Clear
55°F / 13°C 18°F / -8°C 23% 29.92 in
(1013 mb)
SSW 21.9 mph
(SSW 35 kph)
- 10SM
18:55
Clear
57°F / 14°C 18°F / -8°C 21% 29.89 in
(1012 mb)
SSW 23 mph
(SSW 37 kph)
- 10SM
18:35
Clear
57°F / 14°C 18°F / -8°C 21% 29.89 in
(1012 mb)
SSW 24.2 mph
(SSW 39 kph)
- 10SM
18:15
Clear
61°F / 16°C 18°F / -8°C 19% 29.89 in
(1012 mb)
W 27.6 mph
(W 44 kph)
- 10SM
17:55
Clear
61°F / 16°C 18°F / -8°C 19% 29.89 in
(1012 mb)
WNW 21.9 mph
(WNW 35 kph)
- 10SM
17:35
Clear
63°F / 17°C 18°F / -8°C 17% 29.89 in
(1012 mb)
WNW 23 mph
(WNW 37 kph)
- 10SM
17:15
Clear
64°F / 18°C 19°F / -7°C 18% 29.92 in
(1013 mb)
WNW 21.9 mph
(WNW 35 kph)
- 10SM
16:55
Clear
66°F / 19°C 14°F / -10°C 13% 29.92 in
(1013 mb)
WNW 20.7 mph
(WNW 33 kph)
- 10SM
16:35
Clear
66°F / 19°C 16°F / -9°C 14% 29.89 in
(1012 mb)
WNW 25.3 mph
(WNW 41 kph)
- 10SM
16:15
Clear
66°F / 19°C 18°F / -8°C 15% 29.92 in
(1013 mb)
WNW 23 mph
(WNW 37 kph)
- 10SM
15:55
Partly Cloudy
66°F / 19°C 19°F / -7°C 17% 29.92 in
(1013 mb)
WNW 21.9 mph
(WNW 35 kph)
- 10SM
15:35
Clear
68°F / 20°C 21°F / -6°C 17% 29.92 in
(1013 mb)
W 23 mph
(W 37 kph)
- 10SM
15:15
Clear
68°F / 20°C 21°F / -6°C 17% 29.92 in
(1013 mb)
W 21.9 mph
(W 35 kph)
- 10SM
14:55
Partly Cloudy
68°F / 20°C 19°F / -7°C 16% 29.92 in
(1013 mb)
WNW 26.5 mph
(WNW 43 kph)
- 10SM
14:35
Partly Cloudy
68°F / 20°C 25°F / -4°C 20% 29.92 in
(1013 mb)
W 23 mph
(W 37 kph)
- 10SM
14:15
Partly Cloudy
68°F / 20°C 25°F / -4°C 20% 29.92 in
(1013 mb)
W 19.6 mph
(W 32 kph)
- 10SM
13:55
Partly Cloudy
68°F / 20°C 28°F / -2°C 23% 29.92 in
(1013 mb)
WNW 21.9 mph
(WNW 35 kph)
- 10SM
13:35
Partly Cloudy
68°F / 20°C 30°F / -1°C 24% 29.92 in
(1013 mb)
W 19.6 mph
(W 32 kph)
- 10SM
13:15
Partly Cloudy
70°F / 21°C 30°F / -1°C 23% 29.92 in
(1013 mb)
WNW 27.6 mph
(WNW 44 kph)
- 7SM
12:55
Partly Cloudy
Hazy
70°F / 21°C 28°F / -2°C 21% 29.92 in
(1013 mb)
W 26.5 mph
(W 43 kph)
- 4SM
12:35
Partly Cloudy
Hazy
70°F / 21°C 30°F / -1°C 23% 29.92 in
(1013 mb)
NW 28.8 mph
(NW 46 kph)
- 5SM
12:15
Partly Cloudy
70°F / 21°C 23°F / -5°C 17% 29.92 in
(1013 mb)
W 20.7 mph
(W 33 kph)
- 7SM
11:55
Partly Cloudy
72°F / 22°C 21°F / -6°C 15% 29.92 in
(1013 mb)
W 20.7 mph
(W 33 kph)
- 10SM
11:35
Clear
70°F / 21°C 21°F / -6°C 16% 29.92 in
(1013 mb)
W 23 mph
(W 37 kph)
- 10SM
11:15
Partly Cloudy
72°F / 22°C 23°F / -5°C 16% 29.92 in
(1013 mb)
W 17.3 mph
(W 28 kph)
- 10SM
10:55
Partly Cloudy
72°F / 22°C 28°F / -2°C 20% 29.92 in
(1013 mb)
SSW 11.5 mph
(SSW 19 kph)
- 10SM
10:35
Partly Cloudy
70°F / 21°C 30°F / -1°C 23% 29.92 in
(1013 mb)
WNW 11.5 mph
(WNW 19 kph)
- 10SM
10:15
Partly Cloudy
70°F / 21°C 30°F / -1°C 23% 29.92 in
(1013 mb)
SSW 11.5 mph
(SSW 19 kph)
- 10SM
09:55
Partly Cloudy
68°F / 20°C 30°F / -1°C 24% 29.92 in
(1013 mb)
W 13.8 mph
(W 22 kph)
- 10SM
09:35
Partly Cloudy
66°F / 19°C 30°F / -1°C 26% 29.95 in
(1014 mb)
W 12.7 mph
(W 20 kph)
- 10SM
09:15
Partly Cloudy
66°F / 19°C 30°F / -1°C 26% 29.92 in
(1013 mb)
SSW 17.3 mph
(SSW 28 kph)
- 10SM
08:55
Partly Cloudy
64°F / 18°C 32°F / 0°C 30% 29.92 in
(1013 mb)
SSW 11.5 mph
(SSW 19 kph)
- 10SM
08:35
Clear
63°F / 17°C 32°F / 0°C 32% 29.92 in
(1013 mb)
SSW 10.4 mph
(SSW 17 kph)
- 10SM
08:15
Partly Cloudy
61°F / 16°C 34°F / 1°C 36% 29.92 in
(1013 mb)
SSW 10.4 mph
(SSW 17 kph)
- 10SM
07:55
Partly Cloudy
61°F / 16°C 32°F / 0°C 34% 29.92 in
(1013 mb)
SSW 6.9 mph
(SSW 11 kph)
- 10SM
07:35
Clear
61°F / 16°C 32°F / 0°C 34% 29.92 in
(1013 mb)
SSW 8.1 mph
(SSW 13 kph)
- 10SM
07:15
Partly Cloudy
59°F / 15°C 32°F / 0°C 36% 29.92 in
(1013 mb)
W 5.8 mph
(W 9 kph)
- 7SM
06:55
Partly Cloudy
59°F / 15°C 36°F / 2°C 42% 29.92 in
(1013 mb)
Calm - 10SM
06:35
Partly Cloudy
59°F / 15°C 34°F / 1°C 39% 29.92 in
(1013 mb)
Calm - 10SM
06:15
Partly Cloudy
57°F / 14°C 34°F / 1°C 41% 29.92 in
(1013 mb)
Calm - 10SM
05:55
Partly Cloudy
55°F / 13°C 34°F / 1°C 44% 29.92 in
(1013 mb)
SW 3.5 mph
(SW 6 kph)
- 10SM
05:35
Clear
55°F / 13°C 32°F / 0°C 41% 29.92 in
(1013 mb)
SW 3.5 mph
(SW 6 kph)
- 10SM
05:15
Clear
57°F / 14°C 32°F / 0°C 39% 29.92 in
(1013 mb)
SSE 4.6 mph
(SSE 7 kph)
- 10SM
04:55
Clear
57°F / 14°C 32°F / 0°C 39% 29.92 in
(1013 mb)
S 5.8 mph
(S 9 kph)
- 10SM
04:35
Clear
59°F / 15°C 34°F / 1°C 39% 29.92 in
(1013 mb)
S 8.1 mph
(S 13 kph)
- 10SM
04:15
Clear
57°F / 14°C 34°F / 1°C 41% 29.92 in
(1013 mb)
S 6.9 mph
(S 11 kph)
- 10SM
03:55
Clear
57°F / 14°C 37°F / 3°C 48% 29.92 in
(1013 mb)
S 5.8 mph
(S 9 kph)
- 10SM
03:35
Clear
57°F / 14°C 37°F / 3°C 48% 29.92 in
(1013 mb)
SW 5.8 mph
(SW 9 kph)
- 10SM
03:15
Clear
57°F / 14°C 36°F / 2°C 44% 29.92 in
(1013 mb)
SSE 6.9 mph
(SSE 11 kph)
- 10SM
02:55
Clear
57°F / 14°C 36°F / 2°C 44% 29.92 in
(1013 mb)
SSE 5.8 mph
(SSE 9 kph)
- 10SM
02:35
Clear
59°F / 15°C 36°F / 2°C 42% 29.92 in
(1013 mb)
S 8.1 mph
(S 13 kph)
- 10SM
02:15
Clear
61°F / 16°C 36°F / 2°C 39% 29.95 in
(1014 mb)
S 10.4 mph
(S 17 kph)
- 10SM
01:55
Clear
61°F / 16°C 34°F / 1°C 36% 29.95 in
(1014 mb)
S 10.4 mph
(S 17 kph)
- 10SM
01:35
Clear
63°F / 17°C 32°F / 0°C 32% 29.95 in
(1014 mb)
SSE 13.8 mph
(SSE 22 kph)
- 10SM
01:15
Clear
61°F / 16°C 36°F / 2°C 39% 29.95 in
(1014 mb)
SW 11.5 mph
(SW 19 kph)
- 10SM
00:55
Clear
61°F / 16°C 36°F / 2°C 39% 29.95 in
(1014 mb)
SW 5.8 mph
(SW 9 kph)
- 10SM
00:35
Clear
61°F / 16°C 34°F / 1°C 36% 29.98 in
(1015 mb)
SSW 4.6 mph
(SSW 7 kph)
- 10SM
00:15
Clear
61°F / 16°C 30°F / -1°C 31% 29.98 in
(1015 mb)
SSW 5.8 mph
(SSW 9 kph)
- 10SM
Time Weather Temperature Dewpoint Humidity Pressure Winds Precip Visibility


Weather for websites

WeatherForYou.com, LLC is not responsible for any damages or problems caused by this service. Current weather conditions are obtained from the closest station including government and personal stations which may have varying degrees of accuracy. Weather forecasts are derived from the NOAA NDFD. Like all things, this site belongs to Jesus Christ... He just trusts me to maintain it. If you have any questions or comments email webmaster@weatherforyou.com

Copyright © 2014, WeatherForYou.com LLC. All rights reserved.